Regional Weather Roundup
Issued by NWS State College, PA

Home | Current Version | Previous Version | Text Only | Print | Product List | Glossary On
Versions: 1 2 3 4 5 6 7 8 9 10 11 12 13 14 15 16 17 18 19 20 21 22 23 24 25 26 27 28 29 30 31 32 33 34 35 36 37 38 39 40 41 42 43 44 45 46 47 48 49 50
000
ASUS41 KCTP 271210
RWRCTP

REGIONAL WEATHER ROUNDUP
NATIONAL WEATHER SERVICE STATE COLLEGE PA
800 AM EDT SAT AUG 27 2016

Note: "fair" indicates few or no clouds below 12,000 feet with no
significant weather and/or obstructions to visibility.

* = STATION THAT DOES NOT REPORT PRECIPITATION /E.G. RAIN...SNOW...ETC/
    THUNDER OR FOG.

PAZ002>004-007>009-013>016-020>023-029>032-271300-
WESTERN PENNSYLVANIA

CITY           SKY/WX    TMP DP  RH WIND       PRES   REMARKS
ERIE           MOSUNNY   68  64  87 SE6       30.20S
MEADVILLE      MOSUNNY   65  60  84 E8        30.23S
FRANKLIN*        N/A     61  57  88 NE5       30.24S VSB 1/4
NEW CASTLE     FAIR      64  62  93 CALM      30.22S
BEAVER COUNTY  NOT AVBL
BUTLER*        NOT AVBL
PITTSBURGH INT PTSUNNY   67  62  84 E3        30.19S
PITTSBURGH     CLOUDY    68  62  81 NE5       30.20R
INDIANA*       SUNNY     66  64  94 SE6       30.25S
LATROBE        SUNNY     64  64 100 NE7       30.22R
WASHINGTON CO* CLOUDY    64  63  94 CALM      30.20S
$$

PAZ004>006-010>012-017>019-024>028-033>037-041-042-045-046-049>053-271300-
CENTRAL PENNSYLVANIA

CITY           SKY/WX    TMP DP  RH WIND       PRES   REMARKS
BRADFORD       SUNNY     59  58  96 CALM      30.27R
DUBOIS         CLOUDY    64  58  80 E6        30.25S
CLEARFIELD     CLOUDY    60  60 100 N5        30.26R FOG
JOHNSTOWN      SUNNY     68  62  81 CALM      30.26S
ALTOONA        SUNNY     64  63  96 CALM      30.25R
STATE COLLEGE  SUNNY     63  63 100 CALM      30.25R FOG
WILLIAMSPORT   SUNNY     68  62  81 CALM      30.21R
SELINSGROVE    SUNNY     67  67 100 CALM      30.22R
FT INDIANTOWN  SUNNY     69  65  88 CALM      30.20S
CAPITAL CITY   SUNNY     74  68  81 CALM      30.20R
HARRISBURG     MOSUNNY   73  69  87 N3        30.19R
YORK           SUNNY     69  65  86 CALM      30.20R
$$

PAZ038>040-043-044-047-048-054-055-060>062-067>071-271300-
EASTERN PENNSYLVANIA

CITY           SKY/WX    TMP DP  RH WIND       PRES   REMARKS
SCRANTON       SUNNY     66  61  84 CALM      30.23R
MOUNT POCONO   SUNNY     68  57  68 NE8       30.26R
ALLENTOWN      SUNNY     69  64  84 CALM      30.20R
QUAKERTOWN*    SUNNY     68  64  88 CALM      30.21R
READING        SUNNY     70  65  84 CALM      30.19R
LANCASTER      SUNNY     71  68  90 CALM      30.20R
COATESVILLE    SUNNY     73  64  73 CALM      30.21S
POTTSTOWN      SUNNY     71  65  81 CALM      30.21R
BLUE BELL      SUNNY     70  64  83 CALM      30.18S
DOYLESTOWN     SUNNY     72  65  78 CALM      30.19R
WILLOW GROVE   NOT AVBL
NORTH PHILA    SUNNY     76  65  68 NE7       30.19R
PHILADELPHIA   MOSUNNY   77  64  64 N8        30.17R
$$




USA.gov is the U.S. government's official web portal to all federal, state and local government web resources and services.